Weather History for South Hill, VA

Change the Weather History Date:

Saturday, August 31, 2013

  Actual Average (KEMV) Record (KEMV)
Temperature  
Mean Temperature 78 °F -  
Max Temperature 91 °F 85 °F 96 °F (1993)
Min Temperature 64 °F 60 °F 47 °F (1986)
Cooling Degree Days 12    
Growing Degree Days 28 (Base 50)    
Moisture  
Dew Point 71 °F    
Average Humidity 83    
Maximum Humidity 100    
Minimum Humidity 55    
Precipitation  
Precipitation 0.00 in - - ()
Sea Level Pressure  
Sea Level Pressure 29.98 in    
Wind  
Wind Speed 4 mph (SSW)    
Max Wind Speed 14 mph    
Max Gust Speed 20 mph    
Visibility 9 miles    
Events      
Averages and records for this station are not official NWS values.
T = Trace of Precipitation, MM = Missing Value Source: NWS Daily Summary

Daily Weather History Graph

Daily Weather History Graph

Search for Another Location

Airport:

Trip Planner

Search our weather history database for the weather conditions in past years. The results will help you decide how hot, cold, wet, or windy it might be!

Date:

Astronomy

Aug. 31, 2013 Rise Set
Actual Time 6:42 AM EDT 7:41 PM EDT
Civil Twilight 6:16 AM EDT 8:07 PM EDT
Nautical Twilight 5:44 AM EDT 8:39 PM EDT
Astronomical Twilight 5:12 AM EDT 9:11 PM EDT
Moon 2:14 AM EDT (8/31) 4:34 PM EDT (8/31)
Length of Visible Light 13h 51m
Length of Day
12h 58m
Waning Crescent, 21% of the Moon is Illuminated
Aug 31
Waning Crescent
Sep 5
New
Sep 12
First Quarter
Sep 19
Full
Sep 26
Last Quarter

Hourly Weather History & Observations

Time (EDT) Temp. Heat Index Dew Point Humidity Pressure Visibility Wind Dir Wind Speed Gust Speed Precip Events Conditions
12:15 AM 71.6 °F - 71.6 °F 100% 30.02 in 10.0 mi Calm Calm - N/A   Clear
12:35 AM 71.6 °F - 71.6 °F 100% 30.02 in 10.0 mi Calm Calm - N/A   Clear
12:55 AM 69.8 °F - 69.8 °F 100% 30.02 in 10.0 mi Calm Calm - N/A   Clear
1:15 AM 68.0 °F - 68.0 °F 100% 30.01 in 10.0 mi Calm Calm - N/A   Clear
1:35 AM 68.0 °F - 68.0 °F 100% 30.01 in 10.0 mi Calm Calm - N/A   Clear
1:55 AM 69.8 °F - 69.8 °F 100% 30.01 in 10.0 mi South 3.5 mph - N/A   Clear
2:15 AM 68.0 °F - 68.0 °F 100% 30.01 in 10.0 mi South 4.6 mph - N/A   Clear
2:35 AM 68.0 °F - 68.0 °F 100% 30.01 in 10.0 mi Calm Calm - N/A   Clear
2:55 AM 69.8 °F - 69.8 °F 100% 30.01 in 10.0 mi Calm Calm - N/A   Clear
3:15 AM 68.0 °F - 68.0 °F 100% 30.00 in 7.0 mi Calm Calm - N/A   Clear
3:35 AM 66.2 °F - 66.2 °F 100% 30.00 in 7.0 mi South 3.5 mph - N/A   Clear
3:55 AM 66.2 °F - 66.2 °F 100% 30.00 in 10.0 mi South 3.5 mph - N/A   Clear
4:15 AM 66.2 °F - 66.2 °F 100% 30.00 in 7.0 mi South 4.6 mph - N/A   Clear
4:35 AM 68.0 °F - 68.0 °F 100% 30.00 in 7.0 mi South 3.5 mph - N/A   Clear
4:55 AM 66.2 °F - 66.2 °F 100% 30.00 in 7.0 mi Calm Calm - N/A   Clear
5:15 AM 66.2 °F - 66.2 °F 100% 30.00 in 5.0 mi Calm Calm - N/A   Clear
5:35 AM 66.2 °F - 66.2 °F 100% 30.00 in 5.0 mi Calm Calm - N/A   Clear
5:55 AM 66.2 °F - 66.2 °F 100% 30.00 in 3.0 mi Calm Calm - N/A   Clear
6:15 AM 64.4 °F - 64.4 °F 100% 30.00 in 2.0 mi Calm Calm - N/A   Clear
6:35 AM 64.4 °F - 64.4 °F 100% 30.00 in 1.8 mi Calm Calm - N/A   Mist
6:55 AM 64.4 °F - 64.4 °F 100% 30.00 in 2.0 mi Calm Calm - N/A   Clear
7:15 AM 66.2 °F - 66.2 °F 100% 30.00 in 3.0 mi SSW 3.5 mph - N/A   Clear
7:35 AM 66.2 °F - 66.2 °F 100% 30.00 in 4.0 mi South 3.5 mph - N/A   Clear
7:55 AM 69.8 °F - 69.8 °F 100% 30.00 in 7.0 mi South 4.6 mph - N/A   Clear
8:15 AM 71.6 °F - 71.6 °F 100% 30.00 in 7.0 mi SSW 5.8 mph - N/A   Clear
8:35 AM 73.4 °F - 73.4 °F 100% 30.00 in 10.0 mi SSW 6.9 mph - N/A   Clear
8:55 AM 75.2 °F - 75.2 °F 100% 30.01 in 10.0 mi SSW 6.9 mph - N/A   Clear
9:15 AM 78.8 °F - 75.2 °F 89% 30.01 in 10.0 mi South 6.9 mph - N/A   Clear
9:35 AM 80.6 °F 86.2 °F 75.2 °F 84% 30.02 in 10.0 mi SW 6.9 mph - N/A   Clear
9:55 AM 82.4 °F 89.5 °F 75.2 °F 79% 30.01 in 10.0 mi SSW 9.2 mph - N/A   Clear
10:15 AM 82.4 °F 88.2 °F 73.4 °F 74% 30.01 in 10.0 mi South 9.2 mph - N/A   Clear
10:35 AM 84.2 °F 90.9 °F 73.4 °F 70% 30.01 in 10.0 mi SSW 10.4 mph - N/A   Clear
10:55 AM 86.0 °F 93.4 °F 73.4 °F 66% 30.01 in 10.0 mi SSW 9.2 mph - N/A   Clear
11:15 AM 87.8 °F 95.6 °F 73.4 °F 62% 30.01 in 10.0 mi SSW 10.4 mph 17.3 mph N/A   Clear
11:35 AM 87.8 °F 95.6 °F 73.4 °F 62% 30.01 in 10.0 mi South 11.5 mph 17.3 mph N/A   Scattered Clouds
11:56 AM 87.8 °F 95.6 °F 73.4 °F 62% 30.00 in 10.0 mi SSW 12.7 mph - N/A   Clear
12:16 PM 89.6 °F 98.2 °F 73.4 °F 59% 29.99 in 10.0 mi SSW 10.4 mph - N/A   Clear
1:19 PM 89.6 °F 98.2 °F 73.4 °F 59% 29.98 in 10.0 mi SSW 10.4 mph - N/A   Scattered Clouds
1:38 PM 89.6 °F 98.2 °F 73.4 °F 59% 29.98 in 10.0 mi South 13.8 mph 19.6 mph N/A   Scattered Clouds
2:18 PM 91.4 °F 100.1 °F 73.4 °F 55% 29.97 in 10.0 mi South 10.4 mph 16.1 mph N/A   Scattered Clouds
2:38 PM 89.6 °F 98.2 °F 73.4 °F 59% 29.96 in 10.0 mi South 9.2 mph - N/A   Scattered Clouds
2:59 PM 91.4 °F 100.1 °F 73.4 °F 55% 29.95 in 10.0 mi SW 11.5 mph 17.3 mph N/A   Scattered Clouds
3:16 PM 89.6 °F 96.2 °F 71.6 °F 55% 29.95 in 10.0 mi SSW 11.5 mph - N/A   Scattered Clouds
3:39 PM 89.6 °F 98.2 °F 73.4 °F 59% 29.94 in 10.0 mi SSW 8.1 mph - N/A   Scattered Clouds
3:58 PM 91.4 °F 100.1 °F 73.4 °F 55% 29.93 in 10.0 mi SSW 11.5 mph - N/A   Scattered Clouds
4:18 PM 89.6 °F 98.2 °F 73.4 °F 59% 29.92 in 10.0 mi South 6.9 mph - N/A   Mostly Cloudy
4:38 PM 89.6 °F 96.2 °F 71.6 °F 55% 29.92 in 10.0 mi South 12.7 mph - N/A   Scattered Clouds
5:18 PM 89.6 °F 98.2 °F 73.4 °F 59% 29.91 in 10.0 mi South 10.4 mph 17.3 mph N/A   Clear
5:38 PM 89.6 °F 98.2 °F 73.4 °F 59% 29.92 in 10.0 mi South 12.7 mph - N/A   Clear
5:59 PM 87.8 °F 93.8 °F 71.6 °F 58% 29.93 in 10.0 mi South 11.5 mph 16.1 mph N/A   Scattered Clouds
6:39 PM 84.2 °F 90.9 °F 73.4 °F 70% 29.93 in 10.0 mi South 6.9 mph - N/A   Clear
7:18 PM 82.4 °F 88.2 °F 73.4 °F 74% 29.94 in 10.0 mi Calm Calm - N/A   Mostly Cloudy
7:36 PM 82.4 °F 88.2 °F 73.4 °F 74% 29.93 in 10.0 mi Calm Calm - N/A   Mostly Cloudy
8:20 PM 80.6 °F 85.4 °F 73.4 °F 79% 29.94 in 10.0 mi South 3.5 mph - N/A   Mostly Cloudy
9:16 PM 78.8 °F - 73.4 °F 83% 29.95 in 10.0 mi South 3.5 mph - N/A   Clear
10:18 PM 78.8 °F - 73.4 °F 83% 29.96 in 10.0 mi SW 3.5 mph - N/A   Mostly Cloudy
10:36 PM 77.0 °F - 73.4 °F 89% 29.95 in 10.0 mi SSW 4.6 mph - N/A   Mostly Cloudy
10:56 PM 75.2 °F - 73.4 °F 94% 29.95 in 10.0 mi SSW 3.5 mph - N/A   Mostly Cloudy
11:16 PM 75.2 °F - 75.2 °F 100% 29.95 in 10.0 mi Calm Calm - N/A   Scattered Clouds